"datetime","temp","dp","rain_mm","uv","mb"
"2019-10-06 00:00:00",12.2,11.6,0.0,0.0,1011.6
"2019-10-06 00:01:00",12.2,11.6,0.0,0.0,1011.6
"2019-10-06 00:02:00",12.2,11.6,0.2,0.0,1011.6
"2019-10-06 00:03:00",12.2,11.6,0.2,0.0,1011.6
"2019-10-06 00:04:00",12.2,11.6,0.2,0.0,1011.6
"2019-10-06 00:05:00",12.2,11.6,0.2,0.0,1011.6
"2019-10-06 00:06:00",12.2,11.6,0.2,0.0,1011.6
"2019-10-06 00:07:00",12.2,11.6,0.2,0.0,1011.5
"2019-10-06 00:08:00",12.2,11.6,0.2,0.0,1011.6
"2019-10-06 00:09:00",12.2,11.6,0.2,0.0,1011.5
"2019-10-06 00:10:00",12.2,11.6,0.2,0.0,1011.5
"2019-10-06 00:11:00",12.3,11.7,0.2,0.0,1011.5
"2019-10-06 00:12:00",12.2,11.6,0.2,0.0,1011.5
"2019-10-06 00:13:00",12.2,11.6,0.2,0.0,1011.5
"2019-10-06 00:14:00",12.2,11.6,0.2,0.0,1011.5
"2019-10-06 00:15:00",12.2,11.6,0.2,0.0,1011.5
"2019-10-06 00:16:00",12.2,11.6,0.2,0.0,1011.4
"2019-10-06 00:17:00",12.2,11.6,0.2,0.0,1011.4
"2019-10-06 00:18:00",12.2,11.6,0.4,0.0,1011.4
"2019-10-06 00:19:00",12.2,11.6,0.4,0.0,1011.4
"2019-10-06 00:20:00",12.2,11.6,0.4,0.0,1011.4
"2019-10-06 00:21:00",12.3,11.7,0.4,0.0,1011.4
"2019-10-06 00:22:00",12.3,11.7,0.4,0.0,1011.3
"2019-10-06 00:23:00",12.3,11.8,0.4,0.0,1011.3
"2019-10-06 00:24:00",12.3,11.7,0.4,0.0,1011.3
"2019-10-06 00:25:00",12.2,11.7,0.4,0.0,1011.3
"2019-10-06 00:26:00",12.2,11.6,0.4,0.0,1011.2
"2019-10-06 00:27:00",12.2,11.6,0.4,0.0,1011.2
"2019-10-06 00:28:00",12.2,11.7,0.4,0.0,1011.2
"2019-10-06 00:29:00",12.2,11.7,0.4,0.0,1011.2
"2019-10-06 00:30:00",12.2,11.7,0.4,0.0,1011.2
"2019-10-06 00:31:00",12.2,11.7,0.4,0.0,1011.2
"2019-10-06 00:32:00",12.2,11.7,0.6,0.0,1011.2
"2019-10-06 00:33:00",12.2,11.7,0.6,0.0,1011.1
"2019-10-06 00:34:00",12.3,11.8,0.6,0.0,1011.1
"2019-10-06 00:35:00",12.3,11.8,0.6,0.0,1011.1
"2019-10-06 00:36:00",12.2,11.7,0.8,0.0,1011.0
"2019-10-06 00:37:00",12.3,11.8,0.8,0.0,1011.0
"2019-10-06 00:38:00",12.2,11.7,0.8,0.0,1011.0
"2019-10-06 00:39:00",12.2,11.7,0.8,0.0,1010.9
"2019-10-06 00:40:00",12.2,11.7,0.8,0.0,1010.9
"2019-10-06 00:41:00",12.2,11.7,0.8,0.0,1010.8
"2019-10-06 00:42:00",12.2,11.7,1.0,0.0,1010.8
"2019-10-06 00:43:00",12.2,11.7,1.0,0.0,1010.8
"2019-10-06 00:44:00",12.2,11.7,1.0,0.0,1010.7
"2019-10-06 00:45:00",12.2,11.7,1.0,0.0,1010.6
"2019-10-06 00:46:00",12.2,11.7,1.2,0.0,1010.6
"2019-10-06 00:47:00",12.2,11.7,1.2,0.0,1010.6
"2019-10-06 00:48:00",12.2,11.7,1.2,0.0,1010.6
"2019-10-06 00:49:00",12.2,11.7,1.2,0.0,1010.7
"2019-10-06 00:50:00",12.2,11.7,1.2,0.0,1010.7
"2019-10-06 00:51:00",12.2,11.7,1.2,0.0,1010.7
"2019-10-06 00:52:00",12.2,11.7,1.4,0.0,1010.7
"2019-10-06 00:53:00",12.2,11.7,1.4,0.0,1010.7
"2019-10-06 00:54:00",12.2,11.7,1.4,0.0,1010.7
"2019-10-06 00:55:00",12.3,11.8,1.6,0.0,1010.7
"2019-10-06 00:56:00",12.2,11.7,1.6,0.0,1010.8
"2019-10-06 00:57:00",12.3,11.8,1.6,0.0,1010.7
"2019-10-06 00:58:00",12.2,11.7,1.6,0.0,1010.7
"2019-10-06 00:59:00",12.2,11.7,1.6,0.0,1010.7
"2019-10-06 01:00:00",12.2,11.7,1.6,0.0,1010.6
"2019-10-06 01:01:00",12.2,11.7,1.8,0.0,1010.6
"2019-10-06 01:02:00",12.3,11.8,1.8,0.0,1010.7
"2019-10-06 01:03:00",12.3,11.8,1.8,0.0,1010.7
"2019-10-06 01:04:00",12.2,11.7,1.8,0.0,1010.7
"2019-10-06 01:05:00",12.2,11.7,1.8,0.0,1010.6
"2019-10-06 01:06:00",12.2,11.7,1.8,0.0,1010.6
"2019-10-06 01:07:00",12.3,11.8,2.0,0.0,1010.6
"2019-10-06 01:08:00",12.2,11.7,2.0,0.0,1010.6
"2019-10-06 01:09:00",12.3,11.8,2.0,0.0,1010.6
"2019-10-06 01:10:00",12.3,11.8,2.0,0.0,1010.6
"2019-10-06 01:11:00",12.3,11.8,2.0,0.0,1010.5
"2019-10-06 01:12:00",12.3,11.8,2.0,0.0,1010.5
"2019-10-06 01:13:00",12.2,11.7,2.0,0.0,1010.6
"2019-10-06 01:14:00",12.3,11.8,2.0,0.0,1010.6
"2019-10-06 01:15:00",12.2,11.7,2.0,0.0,1010.6
"2019-10-06 01:16:00",12.2,11.7,2.0,0.0,1010.5
"2019-10-06 01:17:00",12.2,11.7,2.0,0.0,1010.6
"2019-10-06 01:18:00",12.3,11.8,2.0,0.0,1010.5
"2019-10-06 01:19:00",12.3,11.8,2.0,0.0,1010.5
"2019-10-06 01:20:00",12.3,11.8,2.0,0.0,1010.5
"2019-10-06 01:21:00",12.3,11.8,2.0,0.0,1010.4
"2019-10-06 01:22:00",12.3,11.8,2.0,0.0,1010.5
"2019-10-06 01:23:00",12.3,11.8,2.0,0.0,1010.4
"2019-10-06 01:24:00",12.3,11.8,2.0,0.0,1010.4
"2019-10-06 01:25:00",12.3,11.8,2.0,0.0,1010.4
"2019-10-06 01:26:00",12.3,11.8,2.0,0.0,1010.4
"2019-10-06 01:27:00",12.2,11.7,2.0,0.0,1010.4
"2019-10-06 01:28:00",12.2,11.7,2.0,0.0,1010.4
"2019-10-06 01:29:00",12.2,11.7,2.0,0.0,1010.4
"2019-10-06 01:30:00",12.3,11.8,2.0,0.0,1010.4
"2019-10-06 01:31:00",12.2,11.7,2.0,0.0,1010.4
"2019-10-06 01:32:00",12.3,11.8,2.0,0.0,1010.3
"2019-10-06 01:33:00",12.3,11.8,2.0,0.0,1010.3
"2019-10-06 01:34:00",12.3,11.8,2.0,0.0,1010.2
"2019-10-06 01:35:00",12.2,11.7,2.0,0.0,1010.2
"2019-10-06 01:36:00",12.3,11.8,2.2,0.0,1010.2
"2019-10-06 01:37:00",12.3,11.8,2.2,0.0,1010.2
"2019-10-06 01:38:00",12.2,11.7,2.4,0.0,1010.1
"2019-10-06 01:39:00",12.2,11.7,2.4,0.0,1010.1
"2019-10-06 01:40:00",12.2,11.7,2.4,0.0,1010.0
"2019-10-06 01:41:00",12.2,11.7,2.4,0.0,1009.9
"2019-10-06 01:42:00",12.2,11.7,2.4,0.0,1009.9
"2019-10-06 01:43:00",12.2,11.7,2.4,0.0,1009.9
"2019-10-06 01:44:00",12.2,11.7,2.6,0.0,1009.9
"2019-10-06 01:45:00",12.2,11.7,2.6,0.0,1009.9
"2019-10-06 01:46:00",12.2,11.7,2.6,0.0,1009.9
"2019-10-06 01:47:00",12.2,11.7,2.6,0.0,1009.9
"2019-10-06 01:48:00",12.2,11.7,2.6,0.0,1009.9
"2019-10-06 01:49:00",12.2,11.7,2.6,0.0,1009.9
"2019-10-06 01:50:00",12.2,11.7,2.6,0.0,1010.0
"2019-10-06 01:51:00",12.2,11.7,2.6,0.0,1010.0
"2019-10-06 01:52:00",12.2,11.7,2.6,0.0,1009.9
"2019-10-06 01:53:00",12.2,11.7,2.8,0.0,1009.9
"2019-10-06 01:54:00",12.3,11.8,2.8,0.0,1009.9
"2019-10-06 01:55:00",12.3,11.8,2.8,0.0,1009.8
"2019-10-06 01:56:00",12.3,11.8,2.8,0.0,1009.8
"2019-10-06 01:57:00",12.3,11.8,2.8,0.0,1009.8
"2019-10-06 01:58:00",12.3,11.8,2.8,0.0,1009.7
"2019-10-06 01:59:00",12.3,11.8,2.8,0.0,1009.7
"2019-10-06 02:00:00",12.3,11.8,2.8,0.0,1009.7
"2019-10-06 02:01:00",12.3,11.8,2.8,0.0,1009.6
"2019-10-06 02:02:00",12.3,11.8,2.8,0.0,1009.6
"2019-10-06 02:03:00",12.3,11.8,2.8,0.0,1009.6
"2019-10-06 02:04:00",12.3,11.8,2.8,0.0,1009.6
"2019-10-06 02:05:00",12.3,11.8,2.8,0.0,1009.6
"2019-10-06 02:06:00",12.3,11.8,2.8,0.0,1009.6
"2019-10-06 02:07:00",12.3,11.8,2.8,0.0,1009.6
"2019-10-06 02:08:00",12.3,11.8,2.8,0.0,1009.6
"2019-10-06 02:09:00",12.3,11.8,2.8,0.0,1009.6
"2019-10-06 02:10:00",12.3,11.8,2.8,0.0,1009.6
"2019-10-06 02:11:00",12.3,11.8,2.8,0.0,1009.6
"2019-10-06 02:12:00",12.3,11.8,2.8,0.0,1009.7
"2019-10-06 02:13:00",12.3,11.8,2.8,0.0,1009.6
"2019-10-06 02:14:00",12.3,11.8,2.8,0.0,1009.6
"2019-10-06 02:15:00",12.3,11.8,2.8,0.0,1009.6
"2019-10-06 02:16:00",12.3,11.8,2.8,0.0,1009.5
"2019-10-06 02:17:00",12.3,11.8,2.8,0.0,1009.5
"2019-10-06 02:18:00",12.3,11.8,2.8,0.0,1009.4
"2019-10-06 02:19:00",12.3,11.8,2.8,0.0,1009.4
"2019-10-06 02:20:00",12.3,11.8,2.8,0.0,1009.4
"2019-10-06 02:21:00",12.3,11.8,2.8,0.0,1009.4
"2019-10-06 02:22:00",12.3,11.8,2.8,0.0,1009.4
"2019-10-06 02:23:00",12.3,11.8,3.0,0.0,1009.4
"2019-10-06 02:24:00",12.4,11.9,3.0,0.0,1009.4
"2019-10-06 02:25:00",12.3,11.8,3.0,0.0,1009.3
"2019-10-06 02:26:00",12.4,11.9,3.0,0.0,1009.3
"2019-10-06 02:27:00",12.3,11.8,3.0,0.0,1009.3
"2019-10-06 02:28:00",12.4,11.9,3.0,0.0,1009.3
"2019-10-06 02:29:00",12.4,11.9,3.0,0.0,1009.3
"2019-10-06 02:30:00",12.4,11.9,3.0,0.0,1009.3
"2019-10-06 02:31:00",12.4,11.9,3.0,0.0,1009.3
"2019-10-06 02:32:00",12.4,11.9,3.0,0.0,1009.3
"2019-10-06 02:33:00",12.4,11.9,3.0,0.0,1009.3
"2019-10-06 02:34:00",12.4,11.9,3.0,0.0,1009.3
"2019-10-06 02:35:00",12.4,11.9,3.0,0.0,1009.2
"2019-10-06 02:36:00",12.4,11.9,3.0,0.0,1009.2
"2019-10-06 02:37:00",12.4,11.9,3.0,0.0,1009.1
"2019-10-06 02:38:00",12.4,11.9,3.0,0.0,1009.1
"2019-10-06 02:39:00",12.4,11.9,3.0,0.0,1009.1
"2019-10-06 02:40:00",12.4,11.9,3.0,0.0,1009.1
"2019-10-06 02:41:00",12.4,11.9,3.0,0.0,1009.1
"2019-10-06 02:42:00",12.4,11.9,3.0,0.0,1009.0
"2019-10-06 02:43:00",12.4,11.9,3.0,0.0,1009.0
"2019-10-06 02:44:00",12.4,11.9,3.0,0.0,1009.0
"2019-10-06 02:45:00",12.4,11.9,3.0,0.0,1009.0
"2019-10-06 02:46:00",12.4,11.9,3.0,0.0,1009.0
"2019-10-06 02:47:00",12.4,11.9,3.2,0.0,1009.0
"2019-10-06 02:48:00",12.4,11.9,3.2,0.0,1009.0
"2019-10-06 02:49:00",12.4,11.9,3.2,0.0,1009.0
"2019-10-06 02:50:00",12.4,11.9,3.2,0.0,1009.0
"2019-10-06 02:51:00",12.4,11.9,3.2,0.0,1009.0
"2019-10-06 02:52:00",12.4,11.9,3.2,0.0,1009.0
"2019-10-06 02:53:00",12.4,11.9,3.2,0.0,1009.0
"2019-10-06 02:54:00",12.4,11.9,3.2,0.0,1008.9
"2019-10-06 02:55:00",12.4,11.9,3.2,0.0,1008.9
"2019-10-06 02:56:00",12.4,11.9,3.2,0.0,1008.9
"2019-10-06 02:57:00",12.4,11.9,3.2,0.0,1008.9
"2019-10-06 02:58:00",12.5,12.0,3.2,0.0,1008.9
"2019-10-06 02:59:00",12.5,12.0,3.2,0.0,1008.9
"2019-10-06 03:00:00",12.5,12.0,3.2,0.0,1008.9
"2019-10-06 03:01:00",12.5,12.0,3.2,0.0,1008.8
"2019-10-06 03:02:00",12.5,12.0,3.2,0.0,1008.8
"2019-10-06 03:03:00",12.5,12.0,3.2,0.0,1008.8
"2019-10-06 03:04:00",12.5,12.0,3.2,0.0,1008.8
"2019-10-06 03:05:00",12.5,12.0,3.2,0.0,1008.8
"2019-10-06 03:06:00",12.4,11.9,3.2,0.0,1008.8
"2019-10-06 03:07:00",12.4,11.9,3.2,0.0,1008.8
"2019-10-06 03:08:00",12.5,12.0,3.2,0.0,1008.8
"2019-10-06 03:09:00",12.5,12.0,3.2,0.0,1008.8
"2019-10-06 03:10:00",12.6,12.1,3.2,0.0,1008.7
"2019-10-06 03:11:00",12.5,12.0,3.2,0.0,1008.8
"2019-10-06 03:12:00",12.6,12.1,3.2,0.0,1008.7
"2019-10-06 03:13:00",12.5,12.0,3.2,0.0,1008.7
"2019-10-06 03:14:00",12.6,12.1,3.2,0.0,1008.7
"2019-10-06 03:15:00",12.6,12.1,3.4,0.0,1008.7
"2019-10-06 03:16:00",12.6,12.1,3.4,0.0,1008.7
"2019-10-06 03:17:00",12.6,12.1,3.4,0.0,1008.6
"2019-10-06 03:18:00",12.6,12.1,3.4,0.0,1008.6
"2019-10-06 03:19:00",12.6,12.1,3.6,0.0,1008.6
"2019-10-06 03:20:00",12.6,12.1,3.6,0.0,1008.5
"2019-10-06 03:21:00",12.6,12.1,3.6,0.0,1008.5
"2019-10-06 03:22:00",12.5,12.0,3.6,0.0,1008.5
"2019-10-06 03:23:00",12.6,12.1,3.6,0.0,1008.6
"2019-10-06 03:24:00",12.5,12.0,3.6,0.0,1008.5
"2019-10-06 03:25:00",12.5,12.0,3.6,0.0,1008.5
"2019-10-06 03:26:00",12.5,12.0,3.8,0.0,1008.4
"2019-10-06 03:27:00",12.6,12.1,3.8,0.0,1008.4
"2019-10-06 03:28:00",12.6,12.1,3.8,0.0,1008.4
"2019-10-06 03:29:00",12.6,12.1,3.8,0.0,1008.3
"2019-10-06 03:30:00",12.6,12.1,3.8,0.0,1008.2
"2019-10-06 03:31:00",12.6,12.1,3.8,0.0,1008.3
"2019-10-06 03:32:00",12.6,12.1,4.0,0.0,1008.3
"2019-10-06 03:33:00",12.6,12.1,4.0,0.0,1008.2
"2019-10-06 03:34:00",12.6,12.1,4.0,0.0,1008.2
"2019-10-06 03:35:00",12.7,12.2,4.0,0.0,1008.2
"2019-10-06 03:36:00",12.6,12.3,4.0,0.0,1008.2
"2019-10-06 03:37:00",12.6,12.1,4.0,0.0,1008.2
"2019-10-06 03:38:00",12.7,12.2,4.0,0.0,1008.2
"2019-10-06 03:39:00",12.7,12.2,4.0,0.0,1008.2
"2019-10-06 03:40:00",12.7,12.2,4.0,0.0,1008.2
"2019-10-06 03:41:00",12.7,12.2,4.0,0.0,1008.2
"2019-10-06 03:42:00",12.7,12.2,4.0,0.0,1008.1
"2019-10-06 03:43:00",12.7,12.2,4.0,0.0,1008.1
"2019-10-06 03:44:00",12.7,12.2,4.0,0.0,1008.1
"2019-10-06 03:45:00",12.7,12.2,4.0,0.0,1008.1
"2019-10-06 03:46:00",12.7,12.2,4.0,0.0,1008.1
"2019-10-06 03:47:00",12.7,12.2,4.0,0.0,1008.0
"2019-10-06 03:48:00",12.7,12.2,4.0,0.0,1008.0
"2019-10-06 03:49:00",12.7,12.2,4.0,0.0,1008.0
"2019-10-06 03:50:00",12.7,12.2,4.0,0.0,1007.9
"2019-10-06 03:51:00",12.7,12.2,4.0,0.0,1007.9
"2019-10-06 03:52:00",12.7,12.2,4.0,0.0,1007.9
"2019-10-06 03:53:00",12.7,12.2,4.0,0.0,1007.9
"2019-10-06 03:54:00",12.7,12.2,4.0,0.0,1007.9
"2019-10-06 03:55:00",12.7,12.2,4.0,0.0,1007.9
"2019-10-06 03:56:00",12.7,12.2,4.0,0.0,1007.8
"2019-10-06 03:57:00",12.7,12.2,4.0,0.0,1007.8
"2019-10-06 03:58:00",12.7,12.2,4.0,0.0,1007.8
"2019-10-06 03:59:00",12.7,12.2,4.0,0.0,1007.7
"2019-10-06 04:00:00",12.8,12.3,4.0,0.0,1007.7
"2019-10-06 04:01:00",12.8,12.3,4.0,0.0,1007.7
"2019-10-06 04:02:00",12.8,12.3,4.0,0.0,1007.7
"2019-10-06 04:03:00",12.8,12.3,4.0,0.0,1007.7
"2019-10-06 04:04:00",12.9,12.4,4.0,0.0,1007.6
"2019-10-06 04:05:00",12.8,12.3,4.0,0.0,1007.6
"2019-10-06 04:06:00",12.8,12.3,4.0,0.0,1007.6
"2019-10-06 04:07:00",12.9,12.6,4.0,0.0,1007.6
"2019-10-06 04:08:00",12.9,12.6,4.0,0.0,1007.6
"2019-10-06 04:09:00",13.0,12.7,4.0,0.0,1007.6
"2019-10-06 04:10:00",13.0,12.7,4.0,0.0,1007.5
"2019-10-06 04:11:00",13.1,12.8,4.0,0.0,1007.5
"2019-10-06 04:12:00",13.2,12.9,4.0,0.0,1007.5
"2019-10-06 04:13:00",13.2,12.9,4.0,0.0,1007.5
"2019-10-06 04:14:00",13.2,12.9,4.0,0.0,1007.4
"2019-10-06 04:15:00",13.2,12.9,4.0,0.0,1007.4
"2019-10-06 04:16:00",13.1,12.8,4.0,0.0,1007.5
"2019-10-06 04:17:00",13.1,12.6,4.0,0.0,1007.5
"2019-10-06 04:18:00",13.1,12.6,4.0,0.0,1007.4
"2019-10-06 04:19:00",13.1,12.6,4.0,0.0,1007.3
"2019-10-06 04:20:00",13.1,12.6,4.0,0.0,1007.3
"2019-10-06 04:21:00",13.1,12.6,4.2,0.0,1007.3
"2019-10-06 04:22:00",13.1,12.6,4.2,0.0,1007.2
"2019-10-06 04:23:00",13.3,13.0,4.2,0.0,1007.2
"2019-10-06 04:24:00",13.3,13.0,4.2,0.0,1007.2
"2019-10-06 04:25:00",13.3,13.0,4.2,0.0,1007.1
"2019-10-06 04:26:00",13.3,13.0,4.2,0.0,1007.1
"2019-10-06 04:27:00",13.2,12.9,4.2,0.0,1007.1
"2019-10-06 04:28:00",13.2,12.7,4.2,0.0,1007.1
"2019-10-06 04:29:00",13.2,12.7,4.2,0.0,1007.1
"2019-10-06 04:30:00",13.3,12.8,4.2,0.0,1007.1
"2019-10-06 04:31:00",13.3,13.0,4.4,0.0,1007.1
"2019-10-06 04:32:00",13.3,13.0,4.4,0.0,1007.0
"2019-10-06 04:33:00",13.3,13.0,4.4,0.0,1007.0
"2019-10-06 04:34:00",13.3,13.0,4.4,0.0,1007.0
"2019-10-06 04:35:00",13.3,13.0,4.4,0.0,1007.0
"2019-10-06 04:36:00",13.3,13.0,4.4,0.0,1007.0
"2019-10-06 04:37:00",13.3,13.0,4.4,0.0,1007.0
"2019-10-06 04:38:00",13.3,13.0,4.4,0.0,1007.0
"2019-10-06 04:39:00",13.3,13.0,4.4,0.0,1006.9
"2019-10-06 04:40:00",13.3,13.0,4.4,0.0,1006.9
"2019-10-06 04:41:00",13.3,13.0,4.4,0.0,1006.9
"2019-10-06 04:42:00",13.3,13.0,4.4,0.0,1006.9
"2019-10-06 04:43:00",13.3,13.0,4.4,0.0,1006.9
"2019-10-06 04:44:00",13.4,13.1,4.4,0.0,1006.8
"2019-10-06 04:45:00",13.4,13.1,4.4,0.0,1006.8
"2019-10-06 04:46:00",13.3,13.0,4.4,0.0,1006.8
"2019-10-06 04:47:00",13.3,13.0,4.6,0.0,1006.8
"2019-10-06 04:48:00",13.4,13.1,4.6,0.0,1006.7
"2019-10-06 04:49:00",13.3,13.0,4.6,0.0,1006.7
"2019-10-06 04:50:00",13.3,13.0,4.6,0.0,1006.7
"2019-10-06 04:51:00",13.3,13.0,4.6,0.0,1006.7
"2019-10-06 04:52:00",13.3,13.0,4.6,0.0,1006.7
"2019-10-06 04:53:00",13.3,13.0,4.6,0.0,1006.7
"2019-10-06 04:54:00",13.3,13.0,4.8,0.0,1006.6
"2019-10-06 04:55:00",13.4,13.1,4.8,0.0,1006.6
"2019-10-06 04:56:00",13.4,13.1,4.8,0.0,1006.6
"2019-10-06 04:57:00",13.4,13.1,4.8,0.0,1006.6
"2019-10-06 04:58:00",13.4,13.1,4.8,0.0,1006.6
"2019-10-06 04:59:00",13.4,13.1,4.8,0.0,1006.5
"2019-10-06 05:00:00",13.4,13.1,5.0,0.0,1006.5
"2019-10-06 05:01:00",13.4,13.1,5.0,0.0,1006.5
"2019-10-06 05:02:00",13.4,13.1,5.0,0.0,1006.5
"2019-10-06 05:03:00",13.4,13.1,5.0,0.0,1006.5
"2019-10-06 05:04:00",13.4,13.1,5.0,0.0,1006.4
"2019-10-06 05:05:00",13.4,13.1,5.0,0.0,1006.4
"2019-10-06 05:06:00",13.4,13.1,5.0,0.0,1006.4
"2019-10-06 05:07:00",13.4,13.1,5.0,0.0,1006.3
"2019-10-06 05:08:00",13.4,13.1,5.0,0.0,1006.3
"2019-10-06 05:09:00",13.4,13.1,5.0,0.0,1006.3
"2019-10-06 05:10:00",13.4,13.1,5.0,0.0,1006.3
"2019-10-06 05:11:00",13.4,13.1,5.0,0.0,1006.3
"2019-10-06 05:12:00",13.4,13.1,5.0,0.0,1006.3
"2019-10-06 05:13:00",13.4,13.1,5.0,0.0,1006.3
"2019-10-06 05:14:00",13.4,13.1,5.0,0.0,1006.4
"2019-10-06 05:15:00",13.4,13.1,5.0,0.0,1006.4
"2019-10-06 05:16:00",13.4,13.1,5.0,0.0,1006.4
"2019-10-06 05:17:00",13.4,13.1,5.0,0.0,1006.4
"2019-10-06 05:18:00",13.4,13.1,5.0,0.0,1006.4
"2019-10-06 05:19:00",13.4,13.1,5.2,0.0,1006.4
"2019-10-06 05:20:00",13.4,13.1,5.2,0.0,1006.4
"2019-10-06 05:21:00",13.4,13.1,5.4,0.0,1006.4
"2019-10-06 05:22:00",13.4,13.1,5.4,0.0,1006.3
"2019-10-06 05:23:00",13.4,13.1,5.6,0.0,1006.3
"2019-10-06 05:24:00",13.4,13.1,5.6,0.0,1006.3
"2019-10-06 05:25:00",13.5,13.2,5.8,0.0,1006.3
"2019-10-06 05:26:00",13.4,13.1,5.8,0.0,1006.3
"2019-10-06 05:27:00",13.5,13.2,6.0,0.0,1006.3
"2019-10-06 05:28:00",13.5,13.2,6.0,0.0,1006.3
"2019-10-06 05:29:00",13.4,13.1,6.2,0.0,1006.3
"2019-10-06 05:30:00",13.4,13.1,6.2,0.0,1006.4
"2019-10-06 05:31:00",13.4,13.1,6.4,0.0,1006.4
"2019-10-06 05:32:00",13.4,13.1,6.6,0.0,1006.5
"2019-10-06 05:33:00",13.4,13.1,7.0,0.0,1006.6
"2019-10-06 05:34:00",13.6,13.3,7.0,0.0,1006.5
"2019-10-06 05:35:00",13.6,13.3,7.2,0.0,1006.5
"2019-10-06 05:36:00",13.6,13.3,7.2,0.0,1006.5
"2019-10-06 05:37:00",13.6,13.3,7.2,0.0,1006.5
"2019-10-06 05:38:00",13.6,13.3,7.2,0.0,1006.5
"2019-10-06 05:39:00",13.6,13.3,7.2,0.0,1006.4
"2019-10-06 05:40:00",13.6,13.3,7.2,0.0,1006.5
"2019-10-06 05:41:00",13.6,13.3,7.2,0.0,1006.5
"2019-10-06 05:42:00",13.6,13.3,7.2,0.0,1006.5
"2019-10-06 05:43:00",13.6,13.3,7.2,0.0,1006.4
"2019-10-06 05:44:00",13.6,13.3,7.2,0.0,1006.5
"2019-10-06 05:45:00",13.6,13.3,7.2,0.0,1006.5
"2019-10-06 05:46:00",13.6,13.3,7.2,0.0,1006.4
"2019-10-06 05:47:00",13.6,13.3,7.2,0.0,1006.5
"2019-10-06 05:48:00",13.6,13.3,7.2,0.0,1006.5
"2019-10-06 05:49:00",13.6,13.3,7.2,0.0,1006.4
"2019-10-06 05:50:00",13.6,13.3,7.2,0.0,1006.5
"2019-10-06 05:51:00",13.6,13.3,7.2,0.0,1006.5
"2019-10-06 05:52:00",13.6,13.3,7.2,0.0,1006.5
"2019-10-06 05:53:00",13.6,13.3,7.2,0.0,1006.5
"2019-10-06 05:54:00",13.6,13.3,7.2,0.0,1006.5
"2019-10-06 05:55:00",13.6,13.3,7.2,0.0,1006.5
"2019-10-06 05:56:00",13.7,13.4,7.2,0.0,1006.5
"2019-10-06 05:57:00",13.6,13.3,7.2,0.0,1006.5
"2019-10-06 05:58:00",13.7,13.4,7.2,0.0,1006.5
"2019-10-06 05:59:00",13.7,13.4,7.2,0.0,1006.6
"2019-10-06 06:00:00",13.6,13.3,7.2,0.0,1006.5
"2019-10-06 06:01:00",13.7,13.4,7.2,0.0,1006.6
"2019-10-06 06:02:00",13.7,13.4,7.2,0.0,1006.6
"2019-10-06 06:03:00",13.7,13.4,7.2,0.0,1006.7
"2019-10-06 06:04:00",13.7,13.4,7.2,0.0,1006.7
"2019-10-06 06:05:00",13.7,13.4,7.2,0.0,1006.6
"2019-10-06 06:06:00",13.7,13.4,7.2,0.0,1006.6
"2019-10-06 06:07:00",13.7,13.4,7.2,0.0,1006.6
"2019-10-06 06:08:00",13.7,13.4,7.2,0.0,1006.6
"2019-10-06 06:09:00",13.7,13.4,7.2,0.0,1006.6
"2019-10-06 06:10:00",13.7,13.4,7.2,0.0,1006.6
"2019-10-06 06:11:00",13.7,13.4,7.2,0.0,1006.6
"2019-10-06 06:12:00",13.7,13.4,7.2,0.0,1006.6
"2019-10-06 06:13:00",13.7,13.4,7.2,0.0,1006.6
"2019-10-06 06:14:00",13.7,13.4,7.2,0.0,1006.6
"2019-10-06 06:15:00",13.7,13.4,7.2,0.0,1006.6
"2019-10-06 06:16:00",13.7,13.4,7.2,0.0,1006.6
"2019-10-06 06:17:00",13.7,13.4,7.2,0.0,1006.7
"2019-10-06 06:18:00",13.7,13.4,7.2,0.0,1006.7
"2019-10-06 06:19:00",13.6,13.3,7.2,0.0,1006.7
"2019-10-06 06:20:00",13.6,13.3,7.2,0.0,1006.7
"2019-10-06 06:21:00",13.7,13.4,7.2,0.0,1006.6
"2019-10-06 06:22:00",13.7,13.4,7.2,0.0,1006.7
"2019-10-06 06:23:00",13.7,13.4,7.2,0.0,1006.6
"2019-10-06 06:24:00",13.7,13.4,7.2,0.0,1006.7
"2019-10-06 06:25:00",13.7,13.4,7.2,0.0,1006.7
"2019-10-06 06:26:00",13.7,13.4,7.2,0.0,1006.7
"2019-10-06 06:27:00",13.7,13.4,7.2,0.0,1006.7
"2019-10-06 06:28:00",13.7,13.4,7.2,0.0,1006.7
"2019-10-06 06:29:00",13.7,13.4,7.2,0.0,1006.7
"2019-10-06 06:30:00",13.7,13.4,7.2,0.0,1006.7
"2019-10-06 06:31:00",13.7,13.4,7.2,0.0,1006.7
"2019-10-06 06:32:00",13.7,13.4,7.2,0.0,1006.7
"2019-10-06 06:33:00",13.7,13.4,7.2,0.0,1006.7
"2019-10-06 06:34:00",13.7,13.4,7.2,0.0,1006.7
"2019-10-06 06:35:00",13.7,13.4,7.2,0.0,1006.7
"2019-10-06 06:36:00",13.7,13.4,7.2,0.0,1006.7
"2019-10-06 06:37:00",13.6,13.3,7.2,0.0,1006.7
"2019-10-06 06:38:00",13.7,13.4,7.2,0.0,1006.7
"2019-10-06 06:39:00",13.6,13.3,7.2,0.0,1006.8
"2019-10-06 06:40:00",13.6,13.3,7.2,0.0,1006.7
"2019-10-06 06:41:00",13.6,13.3,7.2,0.0,1006.7
"2019-10-06 06:42:00",13.6,13.3,7.2,0.0,1006.8
"2019-10-06 06:43:00",13.6,13.3,7.2,0.0,1006.7
"2019-10-06 06:44:00",13.6,13.3,7.2,0.0,1006.7
"2019-10-06 06:45:00",13.6,13.3,7.2,0.0,1006.7
"2019-10-06 06:46:00",13.6,13.3,7.2,0.0,1006.7
"2019-10-06 06:47:00",13.6,13.3,7.2,0.0,1006.8
"2019-10-06 06:48:00",13.6,13.3,7.2,0.0,1006.8
"2019-10-06 06:49:00",13.6,13.3,7.2,0.0,1006.8
"2019-10-06 06:50:00",13.5,13.2,7.2,0.0,1006.8
"2019-10-06 06:51:00",13.6,13.3,7.2,0.0,1006.7
"2019-10-06 06:52:00",13.5,13.2,7.2,0.0,1006.8
"2019-10-06 06:53:00",13.5,13.2,7.2,0.0,1006.8
"2019-10-06 06:54:00",13.6,13.3,7.2,0.0,1006.8
"2019-10-06 06:55:00",13.5,13.2,7.2,0.0,1006.8
"2019-10-06 06:56:00",13.5,13.2,7.2,0.0,1006.8
"2019-10-06 06:57:00",13.4,13.1,7.2,0.0,1006.8
"2019-10-06 06:58:00",13.4,13.1,7.2,0.0,1006.8
"2019-10-06 06:59:00",13.4,13.1,7.2,0.0,1006.8
"2019-10-06 07:00:00",13.4,13.1,7.2,0.0,1006.9
"2019-10-06 07:01:00",13.4,13.1,7.2,0.0,1006.8
"2019-10-06 07:02:00",13.4,13.1,7.2,0.0,1006.9
"2019-10-06 07:03:00",13.4,13.1,7.2,0.0,1006.9
"2019-10-06 07:04:00",13.4,13.1,7.2,0.0,1006.9
"2019-10-06 07:05:00",13.3,13.0,7.2,0.0,1006.9
"2019-10-06 07:06:00",13.4,13.1,7.2,0.0,1006.9
"2019-10-06 07:07:00",13.3,13.0,7.2,0.0,1006.9
"2019-10-06 07:08:00",13.3,13.0,7.2,0.0,1006.9
"2019-10-06 07:09:00",13.3,13.0,7.2,0.0,1006.9
"2019-10-06 07:10:00",13.3,13.0,7.2,0.0,1006.9
"2019-10-06 07:11:00",13.3,13.0,7.2,0.0,1006.9
"2019-10-06 07:12:00",13.3,13.0,7.2,0.0,1006.9
"2019-10-06 07:13:00",13.3,13.0,7.2,0.0,1006.9
"2019-10-06 07:14:00",13.2,12.9,7.2,0.0,1006.9
"2019-10-06 07:15:00",13.2,12.9,7.2,0.0,1006.9
"2019-10-06 07:16:00",13.2,12.9,7.2,0.0,1007.0
"2019-10-06 07:17:00",13.2,12.9,7.2,0.0,1007.0
"2019-10-06 07:18:00",13.1,12.8,7.2,0.0,1007.1
"2019-10-06 07:19:00",13.1,12.8,7.2,0.0,1007.0
"2019-10-06 07:20:00",13.1,12.8,7.2,0.0,1007.1
"2019-10-06 07:21:00",13.1,12.8,7.2,0.0,1007.1
"2019-10-06 07:22:00",13.1,12.8,7.2,0.0,1007.1
"2019-10-06 07:23:00",13.1,12.8,7.2,0.0,1007.1
"2019-10-06 07:24:00",13.1,12.8,7.2,0.0,1007.1
"2019-10-06 07:25:00",13.0,12.7,7.2,0.0,1007.1
"2019-10-06 07:26:00",13.0,12.7,7.2,0.0,1007.2
"2019-10-06 07:27:00",12.9,12.6,7.2,0.0,1007.2
"2019-10-06 07:28:00",13.0,12.7,7.2,0.0,1007.3
"2019-10-06 07:29:00",12.9,12.6,7.2,0.0,1007.4
"2019-10-06 07:30:00",12.9,12.6,7.2,0.0,1007.4
"2019-10-06 07:31:00",12.9,12.6,7.2,0.0,1007.4
"2019-10-06 07:32:00",12.8,12.5,7.2,0.0,1007.4
"2019-10-06 07:33:00",12.8,12.3,7.2,0.0,1007.4
"2019-10-06 07:34:00",12.8,12.3,7.2,0.0,1007.4
"2019-10-06 07:35:00",12.8,12.5,7.2,0.0,1007.4
"2019-10-06 07:36:00",12.8,12.5,7.2,0.0,1007.4
"2019-10-06 07:37:00",12.8,12.5,7.2,0.0,1007.4
"2019-10-06 07:38:00",12.8,12.5,7.2,0.0,1007.5
"2019-10-06 07:39:00",12.8,12.5,7.2,0.0,1007.5
"2019-10-06 07:40:00",12.8,12.5,7.2,0.0,1007.5
"2019-10-06 07:41:00",12.7,12.4,7.2,0.0,1007.5
"2019-10-06 07:42:00",12.7,12.4,7.2,0.0,1007.5
"2019-10-06 07:43:00",12.7,12.4,7.2,0.0,1007.5
"2019-10-06 07:44:00",12.6,12.3,7.2,0.0,1007.4
"2019-10-06 07:45:00",12.6,12.3,7.2,0.0,1007.4
"2019-10-06 07:46:00",12.6,12.3,7.2,0.0,1007.4
"2019-10-06 07:47:00",12.5,12.0,7.2,0.0,1007.5
"2019-10-06 07:48:00",12.6,12.1,7.2,0.0,1007.5
"2019-10-06 07:49:00",12.6,12.1,7.2,0.0,1007.5
"2019-10-06 07:50:00",12.6,12.3,7.2,0.0,1007.5
"2019-10-06 07:51:00",12.6,12.3,7.2,0.0,1007.5
"2019-10-06 07:52:00",12.6,12.3,7.2,0.0,1007.5
"2019-10-06 07:53:00",12.6,12.3,7.2,0.0,1007.5
"2019-10-06 07:54:00",12.6,12.3,7.2,0.0,1007.6
"2019-10-06 07:55:00",12.6,12.3,7.2,0.0,1007.6
"2019-10-06 07:56:00",12.7,12.4,7.2,0.0,1007.6
"2019-10-06 07:57:00",12.7,12.4,7.2,0.0,1007.6
"2019-10-06 07:58:00",12.7,12.4,7.2,0.0,1007.5
"2019-10-06 07:59:00",12.7,12.4,7.2,0.0,1007.5
"2019-10-06 08:00:00",12.7,12.4,7.2,0.0,1007.5
"2019-10-06 08:01:00",12.7,12.4,7.2,0.0,1007.5
"2019-10-06 08:02:00",12.8,12.5,7.2,0.0,1007.6
"2019-10-06 08:03:00",12.7,12.4,7.2,0.0,1007.6
"2019-10-06 08:04:00",12.7,12.4,7.2,0.0,1007.6
"2019-10-06 08:05:00",12.7,12.4,7.2,0.0,1007.5
"2019-10-06 08:06:00",12.7,12.4,7.2,0.0,1007.5
"2019-10-06 08:07:00",12.7,12.4,7.2,0.0,1007.4
"2019-10-06 08:08:00",12.7,12.4,7.2,0.0,1007.4
"2019-10-06 08:09:00",12.7,12.4,7.2,0.0,1007.4
"2019-10-06 08:10:00",12.7,12.4,7.2,0.0,1007.4
"2019-10-06 08:11:00",12.7,12.4,7.2,0.0,1007.4
"2019-10-06 08:12:00",12.7,12.4,7.2,0.0,1007.5
"2019-10-06 08:13:00",12.7,12.4,7.2,0.0,1007.5
"2019-10-06 08:14:00",12.8,12.5,7.2,0.0,1007.6
"2019-10-06 08:15:00",12.7,12.4,7.2,0.0,1007.5
"2019-10-06 08:16:00",12.7,12.4,7.2,0.0,1007.5
"2019-10-06 08:17:00",12.7,12.4,7.2,0.0,1007.6
"2019-10-06 08:18:00",12.8,12.5,7.2,0.0,1007.5
"2019-10-06 08:19:00",12.8,12.5,7.2,0.0,1007.6
"2019-10-06 08:20:00",12.8,12.5,7.2,0.0,1007.5
"2019-10-06 08:21:00",12.8,12.5,7.2,0.0,1007.6
"2019-10-06 08:22:00",12.8,12.5,7.2,0.0,1007.5
"2019-10-06 08:23:00",12.8,12.5,7.2,0.0,1007.6
"2019-10-06 08:24:00",12.8,12.5,7.2,0.0,1007.6
"2019-10-06 08:25:00",12.8,12.5,7.2,0.0,1007.6
"2019-10-06 08:26:00",12.8,12.5,7.2,0.0,1007.6
"2019-10-06 08:27:00",12.8,12.5,7.2,0.0,1007.5
"2019-10-06 08:28:00",12.7,12.4,7.2,0.0,1007.6